Find Starlink 34871

NORAD ID: 65217 Int'l Des: 2025-176 Owner: SPXS Country: US Constellation: starlink operational
LEOCIRCULAR

Current View

Loading 3D Globe...

About Starlink 34871

Description loading...

Upcoming Passes

Passes for default location (London). Set your location on the main map for personalized predictions.

Altitude History

Loading altitude history...

Two-Line Element Set

1 65217U 25176V 26151.10734561 .00019988 00000-0 60110-3 0 9990
2 65217 53.1578 128.8650 0001311 111.3298 248.7845 15.34402011 45753
Epoch: May 31, 2026 • Age: 7 hours

Current Status

Altitude 481.9 km
Velocity 7.62 km/s
Sub-Earth Point -53.01°S, 9.56°W
Launch Date Aug 14, 2025
Age 0.7 years
Type internet

Technical Details

Classification Payload
Mass 575.00 kg
Dry Mass 530.00 kg
Total Mass 575.00 kg
Length 0.30 m
Diameter 4.10 m
Span 29.00 m
Shape Box + pan
Manufacturer SPXS
Bus Type Starlink V2MO
Phase Status In Orbit
Owner/State SPXS/US

Most Searched